Theta_e
306 305 305 305 305 306 306 306 306 306 305 305 305 305 306 307 308 312 310 312 308 302 304 307 304 300 299 300 295 298 297 296 290 288 288 286 286 287 287 288 287 286 284 282 278 280 282 292 295 292 297 297 297 298
305 304 304 305 305 305 305 305 305 304 303 302 304 305 306 307 308 311 311 312 311 306 305 308 309 309 309 305 301 298 300 296 296 290 286 285 285 285 284 287 290 287 289 288 287 288 294 294 297 298 298 297 298 298
304 304 304 304 304 304 305 304 302 302 302 303 304 306 307 308 309 312 312 309 306 301 303 305 305 310 311 309 309 300 296 300 296 295 289 287 287 287 285 286 288 291 291 289 290 293 292 294 297 297 299 300 300 300
304 304 304 304 304 302 301 302 303 302 303 304 305 306 307 309 309 311 309 307 304 297 290 299 307 306 309 311 309 306 301 298 296 294 289 287 287 290 286 289 289 292 292 290 289 293 294 296 298 300 300 300 300 301
304 303 303 303 301 301 302 302 303 303 304 305 307 307 308 309 309 311 308 308 306 304 293 294 303 304 307 307 304 304 302 300 296 292 288 289 288 289 288 288 288 293 293 291 291 297 296 297 298 300 300 300 301 300
303 303 302 302 301 301 301 302 303 303 304 305 306 308 308 307 307 307 303 306 306 303 298 291 298 299 302 304 304 303 303 299 298 295 290 290 293 292 287 288 294 295 297 297 296 297 297 298 298 301 300 301 300 299
303 303 302 301 301 301 302 302 304 304 304 304 306 307 308 306 308 301 299 303 303 302 295 291 291 296 298 301 299 300 303 298 298 293 289 289 292 292 288 287 295 296 298 299 299 299 298 299 298 297 294 290 290 289
302 303 302 302 301 301 301 302 303 304 304 304 305 305 305 306 305 305 305 303 303 297 295 288 288 291 298 293 292 297 294 297 296 293 291 290 291 291 289 292 292 293 295 298 297 299 297 291 290 289 290 290 289 288
301 301 302 302 301 300 301 303 304 304 303 303 304 304 305 303 301 303 303 302 303 299 289 286 288 288 297 292 291 293 295 289 294 291 290 294 287 286 285 286 287 288 290 292 291 289 289 288 288 289 289 289 287 287
301 301 301 301 301 301 301 303 303 303 303 303 302 298 293 300 303 303 300 295 293 292 294 287 291 288 296 288 288 289 290 288 288 290 293 288 287 286 287 288 288 288 289 293 288 286 287 287 288 289 288 289 289 290
301 301 301 302 302 302 302 302 302 303 304 300 295 294 300 301 299 292 288 288 290 287 291 289 289 289 293 291 288 288 288 287 286 288 288 287 284 284 287 288 289 290 290 290 291 290 290 289 288 288 288 288 288 288
301 300 300 301 301 301 301 301 302 300 298 298 299 299 296 293 289 288 286 287 286 286 287 288 289 292 289 293 290 288 287 286 285 289 286 283 282 286 288 289 289 290 290 290 291 290 290 290 290 289 287 286 284 283
299 300 300 300 300 301 301 300 301 300 299 297 293 289 292 288 285 281 284 285 285 286 287 287 287 288 290 289 287 287 286 285 287 285 283 283 287 288 288 289 289 289 289 289 289 289 287 286 285 284 284 283 283 284
299 299 299 299 299 299 299 299 299 298 295 288 287 285 283 285 284 284 285 285 285 285 286 287 286 287 286 286 285 285 284 284 282 281 280 284 286 286 287 288 287 286 282 284 284 284 282 282 282 281 280 280 280 282
299 298 298 298 299 299 298 298 298 296 291 286 286 281 281 283 285 284 285 285 286 287 287 286 286 288 285 285 284 284 280 279 280 278 283 284 285 285 285 286 285 284 281 284 285 284 281 280 279 282 281 281 281 281
298 297 295 297 298 298 297 296 293 292 288 285 285 283 284 284 284 285 285 285 288 286 286 287 284 284 282 284 282 281 279 275 280 284 285 285 284 285 286 287 287 286 286 285 285 284 282 281 280 282 282 282 280 280
296 290 296 297 297 296 295 289 287 286 285 284 283 285 285 285 284 285 285 285 288 286 284 284 283 280 283 280 279 282 278 282 284 284 286 287 286 286 287 288 286 286 285 284 284 283 282 280 279 280 280 281 280 281
289 291 296 296 294 292 288 286 283 285 283 283 282 283 285 285 285 285 285 286 286 285 285 282 284 279 277 274 278 283 283 285 286 286 286 287 287 287 287 286 285 285 283 282 281 281 280 279 279 278 278 279 279 280
292 293 295 295 292 285 284 284 284 281 282 283 283 283 284 284 284 285 285 286 284 282 284 279 276 277 278 280 283 283 284 284 284 285 286 285 285 285 284 284 283 282 281 280 280 279 279 278 277 277 276 276 275 277
294 294 294 294 292 283 281 281 286 284 281 283 283 282 282 282 283 284 285 285 285 281 278 277 277 279 279 280 281 285 288 286 283 281 281 281 283 282 281 281 280 280 279 278 278 276 275 276 275 273 272 272 271 272
290 290 290 288 284 284 284 282 281 283 283 282 282 282 281 283 282 282 283 284 284 282 281 279 281 282 283 282 282 284 284 283 282 282 282 280 280 279 277 277 277 276 275 274 273 270 270 270 271 270 269 269 270 272
286 290 282 285 280 281 281 283 283 281 283 281 280 281 280 280 280 280 282 282 282 281 283 282 283 285 283 281 281 281 282 282 281 280 280 279 278 276 273 272 272 271 271 270 270 267 267 268 268 268 267 267 268 269
288 283 278 276 274 274 275 282 279 278 275 273 280 276 277 278 278 281 279 281 281 283 284 284 282 282 280 280 280 279 279 278 276 276 276 275 273 271 270 269 268 267 267 267 268 267 266 263 265 264 265 265 266 266
286 281 270 269 270 268 278 278 281 279 278 273 272 269 271 271 275 274 273 278 281 282 282 282 280 278 278 277 275 276 277 276 274 272 275 274 271 270 270 268 267 266 265 265 264 263 263 262 260 263 262 263 263 264
273 275 271 266 272 269 273 273 276 277 275 273 271 267 276 274 271 267 270 274 276 276 278 280 279 277 274 274 274 274 275 276 272 269 270 270 269 269 268 267 266 265 265 262 261 260 260 261 261 260 261 261 263 263
267 277 276 275 275 275 267 269 270 274 274 267 269 271 273 273 270 269 271 272 274 273 274 276 275 273 272 273 272 271 271 273 271 268 267 267 266 264 263 262 262 263 263 260 259 259 259 259 259 259 260 262 261 260
269 274 277 280 279 277 268 268 273 274 269 270 273 272 271 271 266 270 274 273 273 272 272 272 274 272 271 270 270 269 269 269 269 268 267 266 266 264 262 260 260 262 262 260 258 257 257 257 258 260 261 262 261 259
278 278 272 276 270 273 269 268 269 270 274 277 275 268 269 269 269 269 271 273 272 271 270 269 269 269 267 267 267 268 267 267 266 265 265 264 262 261 259 259 258 260 257 256 257 257 258 258 260 261 259 259 259 259
271 272 271 267 268 270 269 269 269 273 277 274 269 267 267 267 267 266 269 271 271 270 267 266 266 266 265 264 262 260 260 262 262 258 257 258 258 261 260 258 257 257 256 255 258 260 262 263 261 259 257 257 256 256
269 273 267 263 269 269 276 275 276 273 273 272 271 269 267 265 266 268 267 267 266 264 263 262 261 263 259 260 259 260 258 256 258 259 258 258 258 260 257 257 256 256 254 254 254 256 257 256 257 255 254 254 254 254
272 273 274 270 268 274 272 274 278 278 270 267 267 263 263 263 264 264 263 261 261 261 261 258 258 254 258 257 257 257 258 258 253 255 256 256 257 257 257 256 255 253 253 253 253 253 253 254 253 253 253 253 252 251
267 262 264 267 268 266 264 263 267 267 272 269 262 261 260 261 256 262 262 260 261 260 255 253 255 257 255 254 253 253 253 255 256 255 254 255 257 257 256 255 253 252 253 253 253 252 252 252 253 252 252 251 251 250
263 263 268 267 269 270 262 259 257 261 267 265 260 257 258 259 258 261 261 258 259 259 259 256 256 255 254 253 255 255 253 255 253 255 256 256 254 256 256 254 253 252 253 253 253 251 252 252 252 251 251 249 249 249
Wind_Speed
27 26 23 22 21 20 18 16 14 13 13 12 13 16 18 21 19 3 1 2 4 3 1 0 4 7 4 2 7 6 5 2 3 4 3 4 3 4 2 3 6 6 6 3 4 1 7 5 3 5 5 2 3 7
26 23 22 21 20 18 16 14 13 13 13 12 11 14 19 22 19 6 4 1 1 5 3 1 3 3 1 5 8 1 4 5 5 6 1 3 3 1 2 3 1 3 5 4 9 6 3 5 4 1 1 3 2 3
23 22 20 19 18 16 14 14 14 13 12 10 11 14 18 21 15 8 4 3 3 4 3 4 4 5 6 4 2 7 2 5 3 2 5 3 4 4 5 6 1 4 4 3 1 3 8 10 8 8 7 10 6 7
23 21 20 19 17 16 16 15 13 12 12 10 12 16 17 15 7 8 5 2 3 4 7 3 3 5 7 5 3 2 9 7 7 2 4 3 3 4 3 2 3 3 6 4 5 9 5 9 10 11 9 7 8 6
21 20 20 19 18 17 16 15 14 11 12 11 13 16 19 19 17 11 5 4 1 4 6 1 2 5 9 5 11 10 10 7 3 3 3 3 3 5 2 1 3 7 7 5 6 9 4 6 3 2 4 5 6 6
20 20 20 17 15 18 17 17 13 11 11 10 11 13 15 14 9 5 4 2 5 2 7 3 2 5 6 7 12 9 5 4 3 3 2 2 2 3 4 3 9 3 4 4 6 3 4 6 7 4 5 5 2 3
19 18 17 17 18 18 15 14 13 16 12 13 12 12 11 10 6 4 4 2 7 1 6 4 3 4 4 4 4 5 5 3 3 3 3 3 2 3 3 4 6 8 9 9 4 4 5 3 5 8 9 13 17 17
17 15 14 10 18 17 16 13 13 12 15 14 15 20 23 23 15 5 4 7 4 6 6 5 1 4 6 3 3 3 2 2 4 3 2 2 2 1 3 4 12 12 14 1 11 6 2 7 10 12 13 14 19 16
15 13 11 13 19 16 15 14 11 11 11 6 4 7 5 8 4 2 9 8 3 6 5 3 5 4 2 2 2 3 2 3 1 2 1 3 1 2 4 9 10 11 7 12 8 12 14 15 14 15 17 15 14 11
17 15 12 12 13 14 12 10 10 10 8 6 7 6 4 2 7 7 7 7 8 5 5 4 0 2 1 0 2 2 2 2 2 1 2 2 2 5 6 6 6 8 10 4 5 9 11 13 14 13 12 10 7 5
20 16 14 14 13 12 11 10 9 7 8 5 5 3 2 7 3 5 5 6 3 4 3 1 2 3 3 3 2 1 2 1 2 2 3 1 2 2 5 6 7 9 12 15 17 15 13 10 10 8 5 4 1 2
24 21 19 16 14 12 13 10 6 7 2 2 5 4 3 5 5 8 3 2 4 2 1 2 1 2 1 1 3 0 3 1 2 2 1 2 2 3 3 6 9 9 12 15 14 14 10 8 5 4 1 1 1 1
24 24 22 19 16 13 14 14 13 10 3 3 6 6 5 4 7 5 4 1 2 1 0 1 2 1 1 3 3 2 3 2 2 2 2 2 5 4 4 5 8 7 6 7 7 4 4 4 6 5 4 3 3 3
20 20 24 22 17 14 13 11 9 5 6 6 4 6 3 3 3 1 2 3 1 1 2 2 2 2 0 3 1 2 1 1 3 4 4 3 5 6 5 3 6 4 5 4 4 4 4 4 4 3 2 3 3 4
14 19 20 24 15 11 9 12 12 5 5 5 5 5 4 2 3 2 1 2 2 1 1 2 2 1 2 3 2 3 1 3 3 3 2 4 6 6 6 4 4 2 1 2 2 2 3 4 4 4 5 4 4 5
8 8 12 22 13 13 6 8 7 5 5 4 6 3 2 3 2 2 2 2 2 1 1 3 2 2 2 2 2 3 3 4 3 2 3 6 8 5 4 2 1 2 2 3 4 4 4 6 5 5 5 6 6 5
12 5 18 16 9 7 14 6 5 7 5 4 3 2 2 3 3 2 2 2 2 2 2 1 2 2 2 2 0 2 3 1 4 5 4 6 8 7 6 4 2 1 4 5 4 6 5 4 3 6 10 12 11 9
5 7 16 17 6 6 5 6 5 5 6 3 3 3 2 3 2 3 2 3 2 1 1 2 2 2 3 4 2 2 1 2 2 3 4 4 4 4 3 2 4 5 7 6 7 7 7 8 9 8 10 11 9 9
4 12 18 17 7 5 5 6 5 5 3 2 2 2 2 2 2 1 1 2 2 1 3 2 3 1 2 2 2 3 4 4 4 2 2 3 4 4 5 6 7 9 9 9 9 7 7 9 7 7 8 9 8 9
13 17 20 15 8 5 6 4 3 4 3 1 2 3 2 1 2 1 2 3 2 1 3 2 1 1 1 2 1 1 3 4 3 3 4 5 6 9 9 8 7 7 7 8 7 9 6 5 6 7 7 8 8 9
10 9 13 8 5 7 5 3 4 2 2 3 1 2 2 2 3 3 2 3 2 2 2 1 1 1 2 2 1 1 3 3 2 2 4 5 6 7 7 7 7 7 6 5 5 5 6 6 6 7 7 7 7 8
4 10 4 7 6 5 5 4 2 2 3 0 2 1 2 2 1 1 2 1 1 1 1 0 1 0 2 4 6 7 7 8 9 9 11 8 5 6 6 6 5 5 5 5 4 4 5 6 6 7 7 8 8 9
6 7 5 6 8 7 3 2 5 5 3 2 2 2 1 0 1 1 2 1 1 2 2 1 5 7 8 6 8 12 10 10 8 8 8 8 8 6 6 6 5 4 3 5 5 5 5 6 6 7 7 7 7 8
6 6 6 4 6 1 2 4 3 3 2 3 2 3 3 1 3 3 1 2 3 4 4 2 5 5 6 7 8 8 7 6 8 7 6 7 7 6 5 5 4 5 5 4 4 4 5 6 7 7 7 7 7 7
9 8 6 6 4 6 4 3 3 2 2 2 2 3 0 2 2 3 1 3 5 6 6 6 6 6 5 5 5 6 8 4 5 9 7 6 5 4 4 4 4 5 6 5 6 6 6 6 6 7 7 6 8 9
8 5 4 2 2 2 2 1 3 2 1 2 3 2 1 1 3 3 3 4 4 5 6 5 4 5 7 6 5 4 5 4 5 7 5 6 6 4 4 4 4 3 6 4 4 6 7 7 7 8 8 9 7 8
5 4 2 1 1 1 3 1 1 0 1 1 1 1 2 2 2 2 2 4 3 4 5 6 6 6 6 5 5 5 6 6 7 7 6 6 6 6 5 4 4 4 6 5 4 3 6 7 7 7 7 7 5 5
3 2 2 3 2 0 1 1 2 2 1 2 1 3 2 1 2 2 3 4 4 4 6 7 7 6 6 5 4 4 6 6 7 6 5 4 3 3 4 3 2 5 4 4 5 5 5 6 6 7 6 6 6 3
2 3 3 4 4 4 2 2 1 2 2 1 3 2 2 3 2 3 3 3 3 3 4 5 5 4 5 5 6 5 4 3 3 5 3 2 3 2 3 4 4 4 4 5 8 8 8 5 4 3 4 4 4 3
3 1 4 1 2 2 1 1 1 1 2 3 3 3 3 2 3 4 3 4 4 4 3 3 2 2 2 2 2 4 4 4 3 3 1 2 2 3 4 4 5 5 4 4 5 7 7 5 5 4 4 4 4 4
0 2 2 2 1 0 2 4 2 2 3 3 3 4 3 2 1 3 3 3 3 3 3 3 4 3 3 3 3 2 2 1 2 2 2 3 3 3 4 4 3 3 3 4 4 4 4 3 3 4 5 6 6 5
4 3 3 2 3 3 5 4 3 2 2 3 2 2 2 3 2 2 3 2 3 4 2 1 2 1 2 1 1 1 3 3 4 3 4 3 3 4 4 3 2 2 3 4 3 4 3 4 3 3 4 5 6 6
2 1 2 2 3 4 3 3 5 3 3 3 2 1 1 2 2 2 1 2 1 1 1 2 2 2 3 3 2 2 3 3 6 7 6 5 5 5 3 2 2 2 3 3 3 3 4 4 3 4 4 5 5 5
Wind_Direction
132 128 124 123 125 128 132 132 134 126 130 144 159 169 168 167 170 144 86 61 118 102 322 64 163 134 114 124 136 172 87 318 57 79 133 181 167 206 149 160 181 177 157 180 111 193 272 183 126 173 225 275 241 200
107 116 119 120 125 123 118 118 116 121 129 132 143 158 161 162 173 167 107 49 23 80 139 99 91 68 293 165 127 198 145 158 167 92 125 114 144 127 129 226 340 236 197 180 195 219 243 220 243 224 170 268 259 238
108 108 110 109 105 106 110 115 114 109 111 120 138 145 155 162 162 194 72 102 56 99 35 56 14 342 28 7 202 119 290 149 123 87 143 132 142 140 161 231 203 236 166 210 113 248 236 237 263 261 244 236 236 229
102 103 104 105 102 99 108 104 101 101 96 100 119 138 142 136 159 123 121 148 95 105 107 291 330 27 328 347 53 58 122 81 96 75 106 133 141 198 187 173 184 199 149 180 262 278 272 260 234 255 267 248 252 242
99 100 96 93 98 100 97 91 88 87 82 78 97 109 117 117 104 84 74 41 263 135 143 204 312 6 355 38 75 78 102 107 115 88 98 176 119 123 71 59 256 184 189 178 230 243 208 254 298 285 257 262 262 235
91 91 93 93 92 88 87 89 85 77 69 87 82 90 101 110 102 80 81 183 23 22 101 105 287 7 349 29 56 52 46 73 84 123 149 111 28 105 138 200 258 190 235 229 268 43 235 271 283 275 278 328 356 106
85 86 91 96 91 83 79 76 69 60 67 75 87 97 114 118 67 92 149 303 349 6 88 78 6 340 340 26 42 26 28 65 75 96 66 117 111 100 136 198 10 2 337 306 301 302 292 28 350 24 79 83 86 85
81 83 78 103 95 81 70 68 67 62 62 64 85 95 93 97 117 46 7 357 331 92 69 110 299 30 358 33 55 353 46 35 29 102 92 108 98 110 223 338 339 340 329 28 14 343 54 87 71 74 83 88 81 74
80 84 80 66 72 74 71 60 52 39 50 72 124 116 60 38 52 277 325 315 37 89 109 81 133 199 1 54 50 36 33 73 308 118 108 130 122 186 347 326 337 339 315 293 25 62 73 77 79 81 88 82 84 90
69 70 73 69 82 78 72 63 37 25 24 24 40 42 35 338 315 314 3 27 20 359 37 82 175 119 40 45 40 76 352 109 163 208 108 116 102 115 17 355 346 352 1 2 117 72 75 81 82 76 71 80 97 105
67 69 72 73 71 69 61 38 20 12 32 37 43 54 260 324 48 35 57 57 335 38 21 90 143 125 340 115 139 332 139 117 178 192 192 161 109 42 19 52 47 60 67 73 85 90 87 87 97 105 130 188 215 345
56 56 57 62 67 62 52 31 48 55 46 114 125 100 46 34 48 72 42 2 45 177 344 108 59 72 56 51 100 339 121 96 205 118 145 165 123 80 58 72 71 72 81 84 87 98 111 127 152 160 155 155 135 9
52 47 44 43 44 48 52 49 60 98 109 43 48 52 40 339 57 99 158 191 165 176 341 115 72 80 80 57 73 100 146 202 94 171 187 101 129 111 82 91 95 93 83 100 107 79 65 46 29 28 27 24 352 344
55 51 44 34 31 35 40 37 32 61 61 60 51 62 52 77 63 66 47 78 48 91 83 75 71 83 16 67 76 120 87 122 191 193 181 139 140 132 126 109 128 126 66 58 53 29 30 32 7 360 354 355 353 359
43 43 42 18 15 24 29 45 38 47 59 57 32 56 54 95 59 53 29 76 2 124 85 86 69 57 35 89 37 106 91 233 230 194 118 130 126 126 130 153 153 126 75 61 34 27 14 16 22 14 11 352 346 331
52 50 16 353 359 22 37 43 31 55 52 58 44 74 23 73 49 48 31 49 3 38 30 39 92 94 97 123 154 195 157 227 158 144 120 128 139 152 161 144 104 19 7 21 45 38 35 30 25 3 351 18 355 333
60 40 335 348 359 19 30 67 49 51 73 53 37 13 46 63 69 57 40 26 348 50 63 49 97 108 80 77 242 176 207 187 138 128 128 145 158 173 188 214 290 8 56 59 66 54 44 25 41 31 16 1 350 346
46 309 356 4 17 37 38 38 74 65 63 32 59 4 25 24 52 41 33 4 34 71 66 76 127 122 157 163 239 201 127 74 77 125 148 164 168 183 180 171 98 87 87 73 67 58 44 37 34 21 4 355 343 342
20 12 7 13 46 84 61 25 49 78 53 37 49 21 44 55 39 22 341 24 58 82 104 61 75 165 226 217 200 159 156 156 152 132 95 86 114 119 98 87 87 82 75 64 53 46 39 38 29 11 355 350 344 338
7 17 4 11 38 72 62 15 29 77 66 326 47 35 57 53 316 359 18 22 19 57 34 43 235 286 242 311 278 229 160 129 128 107 93 66 70 78 71 76 72 75 70 58 59 40 24 31 22 5 358 351 347 341
18 348 356 18 35 58 74 12 59 59 98 69 341 40 25 8 29 27 11 337 32 7 22 55 307 275 37 18 14 77 88 143 143 141 138 115 86 84 72 62 67 67 65 53 48 27 25 17 357 354 349 345 337 326
333 357 33 21 58 43 69 7 59 306 62 77 51 36 53 49 32 24 313 9 65 43 30 51 329 195 87 49 54 52 70 83 87 85 81 96 99 80 66 53 68 71 66 49 41 28 12 3 353 347 346 340 335 330
6 25 36 33 64 44 324 9 48 8 72 315 1 35 8 318 287 321 41 27 45 13 346 68 63 65 86 66 80 70 62 74 76 78 85 87 90 88 88 72 56 57 58 38 15 15 2 345 351 349 344 340 340 340
15 46 46 50 58 42 354 30 19 32 22 19 52 340 338 313 340 51 46 28 14 355 356 87 118 112 86 58 56 55 61 81 82 63 63 96 94 82 83 89 81 64 41 7 8 357 355 352 347 348 342 341 338 339
66 5 72 2 10 57 47 27 5 43 32 302 358 333 324 27 60 42 41 18 11 6 6 25 54 64 84 82 69 56 29 69 97 89 51 66 91 94 76 68 67 60 24 10 3 351 348 345 344 337 331 335 337 344
72 25 54 51 39 63 182 133 199 203 222 325 241 298 16 70 64 44 41 344 8 357 357 20 69 77 56 41 57 41 22 26 89 88 67 59 63 74 57 33 9 25 19 15 351 335 332 331 327 326 327 338 342 349
68 27 8 11 25 13 13 334 171 84 29 356 326 24 56 62 59 56 32 18 15 4 12 22 44 66 75 65 54 44 44 48 68 93 99 86 76 68 65 40 4 332 333 343 338 321 314 317 314 317 322 332 338 346
73 69 63 331 3 87 112 49 61 36 14 355 68 46 120 97 121 37 19 27 53 58 61 54 54 62 65 56 45 68 73 77 85 93 100 90 72 59 44 24 344 326 331 330 319 311 305 297 302 317 330 327 329 331
35 321 72 6 11 30 52 103 278 310 340 39 112 100 99 61 17 343 350 9 36 69 68 69 55 58 67 64 52 41 33 35 55 47 35 342 345 344 4 352 340 344 351 335 324 325 319 326 357 348 342 330 331 339
301 140 85 57 68 21 34 150 303 198 52 80 94 95 78 53 8 350 23 38 55 65 56 54 17 62 72 59 33 25 34 39 51 83 31 320 277 303 330 334 333 334 339 336 337 333 346 11 355 14 7 5 6 356
336 47 68 52 216 47 349 319 336 101 84 69 41 87 107 134 57 29 40 27 47 56 66 45 45 36 70 58 65 41 8 357 353 324 277 284 282 295 300 310 315 320 331 340 348 349 342 348 2 349 353 357 355 352
17 78 107 329 299 320 15 41 359 22 69 98 58 79 44 63 38 350 5 26 49 50 46 93 70 336 224 234 238 247 237 302 317 313 304 293 287 294 299 310 326 324 328 336 343 344 345 342 337 348 343 343 339 338
27 51 75 11 341 348 350 65 23 17 40 61 31 84 101 123 147 253 36 37 115 145 289 259 259 261 247 235 252 273 262 289 297 293 292 285 285 290 299 305 311 315 321 326 327 332 336 329 327 337 335 329 325 328